Flight Track Log - Related Links

Times and Time Zones

All times are in EDT time to prevent confusion due to time zone crossing. See the EGF3994 flight status page for this flight to view local times or setup timezone preferences in your user account.

Time Position Orientation Groundspeed Altitude Reporting Facility
EDT Latitude Longitude Course Direction KTS MPH feet Rate Location/Type
Sat 06:41:22 PM 41.9833 -87.8667 90° East 160 184 1,700  Level Chicago TRACON
Sat 06:42:16 PM 41.9833 -87.8000 90° East 212 244 3,600 2,084 Climbing Chicago TRACON
Sat 06:43:00 PM 41.9634 -87.5003 98° East  Level FlightAware Approximate
Sat 06:44:00 PM 41.9501 -87.3682 98° East  Level FlightAware Approximate
Sat 06:44:32 PM 41.9767 -87.5858 92° East 256 295 8,300  Level Chicago Center
Sat 06:45:00 PM 41.9407 -87.2355 95° East  Level FlightAware Approximate
Sat 06:45:33 PM 41.9714 -87.4825 94° East 275 316 10,400  Level Chicago Center
Sat 06:46:00 PM 41.9333 -87.1027 90° East  Level FlightAware Approximate
Sat 06:46:35 PM 41.9658 -87.3764 94° East 282 325 12,400  Level Chicago Center
Sat 06:47:36 PM 41.9553 -87.2611 97° East 305 351 14,000 1,463 Climbing Chicago Center
Sat 06:48:38 PM 41.9425 -87.1403 98° East 324 373 15,400 1,366 Climbing Chicago Center
Sat 06:49:39 PM 41.9261 -87.0156 100° East 336 387 16,800 1,366 Climbing Chicago Center
Sat 06:50:41 PM 41.9092 -86.8625 98° East 346 398 18,200 1,210 Climbing Chicago Center
Sat 06:51:43 PM 41.8936 -86.7275 99° East 363 418 19,300 1,024 Climbing Chicago Center
Sat 06:52:44 PM 41.8789 -86.6011 99° East 376 433 20,300 976 Climbing Chicago Center
Sat 06:53:46 PM 41.8619 -86.4586 99° East 387 445 21,300 1,016 Climbing Chicago Center
Sat 06:54:48 PM 41.8450 -86.3136 99° East 394 453 22,400 829 Climbing Chicago Center
Sat 06:55:49 PM 41.8242 -86.1378 99° East 399 459 23,000 293 Climbing Chicago Center
Sat 06:56:51 PM 41.7619 -86.0150 124° Southeast 404 465 23,000  Level Chicago Center
Sat 06:57:52 PM 41.6817 -85.9097 136° Southeast 406 467 23,000  Level Chicago Center
Sat 06:58:54 PM 41.6022 -85.8022 135° Southeast 408 470 23,000  Level Chicago Center
Sat 06:59:56 PM 41.5239 -85.6933 134° Southeast 411 473 23,000  Level Chicago Center
Sat 07:00:57 PM 41.4297 -85.5631 134° Southeast 414 476 23,000  Level Chicago Center
Sat 07:01:59 PM 41.3503 -85.4544 134° Southeast 416 479 23,000  Level Chicago Center
Sat 07:03:00 PM 41.2692 -85.3450 135° Southeast 418 481 23,000  Level Chicago Center
Sat 07:04:02 PM 41.1875 -85.2328 134° Southeast 423 487 23,000 -49 Level Chicago Center
Sat 07:05:03 PM 41.1042 -85.1222 135° Southeast 424 488 22,900 -1,268 Descending Chicago Center
Sat 07:06:05 PM 41.0244 -85.0133 134° Southeast 419 482 20,400 -2,537 Descending Chicago Center
Sat 07:07:06 PM 40.9489 -84.9117 135° Southeast 399 459 17,700 -2,634 Descending Chicago Center
Sat 07:08:08 PM 40.8614 -84.7964 135° Southeast 377 434 15,000 -1,317 Descending Chicago Center
Sat 07:09:09 PM 40.7906 -84.7031 135° Southeast 366 421 15,000 -390 Level Chicago Center
Sat 07:10:11 PM 40.7183 -84.6067 135° Southeast 368 423 14,200 -927 Descending Chicago Center
Sat 07:11:12 PM 40.6492 -84.5161 135° Southeast 358 412 13,100 -1,011 Descending Chicago Center
Sat 07:11:46 PM 40.6139 -84.4703 135° Southeast 353 406 12,600 -1,011 Descending Indianapolis Center
Sat 07:12:47 PM 40.5472 -84.3803 134° Southeast 343 395 11,500 -1,059 Descending Indianapolis Center
Sat 07:13:45 PM 40.4531 -84.3325 159° South 342 394 10,500 -807 Descending Indianapolis Center
Sat 07:14:46 PM 40.3647 -84.3125 170° South 316 364 9,900 -1,046 Descending Indianapolis Center
Sat 07:15:34 PM 40.3028 -84.2986 170° South 259 298 8,600 -1,688 Descending Indianapolis Center
Sat 07:15:50 PM 40.2847 -84.2922 165° South 277 319 8,100 -1,377 Descending Indianapolis Center
Sat 07:16:35 PM 40.2333 -84.2783 168° South 250 288 7,200 -1,377 Descending Indianapolis Center
Sat 07:16:51 PM 40.2167 -84.2747 171° South 255 293 6,700 -1,455 Descending Indianapolis Center
Sat 07:17:41 PM 40.1631 -84.2633 171° South 232 267 5,600 -1,320 Descending Indianapolis Center

Login

Don't have an account? Register now (free) for customized features, flight alerts, and more!